FDB3DK ORER-OMDB

Flight info

Callsign FDB3DK
Flight time 2h 14m
Altitude 33000
Route RER DCT TOTAM DCT SOBIL M688 SIDAD P975 SESRU M677 VUTEB
Aircraft B738/M-SDE2E3FGHIRWXY/LB1

Departure

Time 2026-05-05 12:56
Airport Erbil International Airport (ORER)

Arrival

Time 2026-05-05 15:10
Airport Dubai International Airport (OMDB)
Time Latitude Longitude Altitude Speed Heading
2026-05-05 12:26 36.23437 43.95346 1356 ft 0 kts 90°
2026-05-05 12:44 36.23437 43.95333 1360 ft 2 kts 90°
2026-05-05 12:44 36.23437 43.95313 1360 ft 2 kts 90°
2026-05-05 12:45 36.23437 43.95293 1360 ft 2 kts 90°
2026-05-05 12:45 36.23436 43.95273 1360 ft 2 kts 90°
2026-05-05 12:45 36.23436 43.95253 1360 ft 2 kts 90°
2026-05-05 12:45 36.23436 43.95237 1360 ft 0 kts 96°
2026-05-05 12:49 36.23436 43.95238 1360 ft 2 kts 95°
2026-05-05 12:49 36.23469 43.95290 1361 ft 10 kts 20°
2026-05-05 12:49 36.23542 43.95261 1362 ft 12 kts 332°
2026-05-05 12:49 36.23617 43.95223 1362 ft 12 kts 326°
2026-05-05 12:50 36.23641 43.95133 1362 ft 11 kts 272°
2026-05-05 12:50 36.23643 43.95031 1362 ft 13 kts 269°
2026-05-05 12:50 36.23652 43.94916 1362 ft 13 kts 302°
2026-05-05 12:50 36.23736 43.94892 1363 ft 13 kts
2026-05-05 12:51 36.23825 43.94894 1363 ft 13 kts
2026-05-05 12:51 36.23912 43.94894 1363 ft 12 kts
2026-05-05 12:51 36.23996 43.94895 1364 ft 12 kts
2026-05-05 12:51 36.24078 43.94897 1363 ft 12 kts
2026-05-05 12:52 36.24168 43.94896 1363 ft 16 kts 360°
2026-05-05 12:52 36.24303 43.94898 1362 ft 23 kts
2026-05-05 12:52 36.24481 43.94899 1362 ft 27 kts
2026-05-05 12:52 36.24662 43.94901 1361 ft 26 kts
2026-05-05 12:53 36.24836 43.94902 1361 ft 24 kts
2026-05-05 12:53 36.24997 43.94903 1362 ft 23 kts
2026-05-05 12:53 36.25150 43.94904 1362 ft 22 kts
2026-05-05 12:53 36.25320 43.94905 1363 ft 27 kts
2026-05-05 12:54 36.25668 43.94911 1362 ft 23 kts
2026-05-05 12:54 36.25826 43.94914 1362 ft 23 kts 359°
2026-05-05 12:54 36.25951 43.94864 1361 ft 17 kts 294°
2026-05-05 12:55 36.25958 43.94719 1362 ft 17 kts 250°
2026-05-05 12:55 36.25858 43.94679 1362 ft 16 kts 180°
2026-05-05 12:55 36.25737 43.94677 1363 ft 29 kts 180°
2026-05-05 12:55 36.25278 43.94677 1364 ft 102 kts 180°
2026-05-05 12:56 36.24345 43.94672 1375 ft 163 kts 180°
2026-05-05 12:56 36.23137 43.94710 1926 ft 179 kts 174°
2026-05-05 12:56 36.21853 43.94789 2678 ft 192 kts 178°
2026-05-05 12:56 36.20511 43.95021 3549 ft 192 kts 167°
2026-05-05 12:57 36.19365 43.95757 4476 ft 183 kts 144°
2026-05-05 12:57 36.18341 43.96651 5263 ft 177 kts 147°
2026-05-05 12:57 36.17316 43.97482 5914 ft 181 kts 149°
2026-05-05 12:57 36.16179 43.98385 6149 ft 205 kts 149°
2026-05-05 12:58 36.14915 43.99389 6328 ft 226 kts 149°
2026-05-05 12:58 36.13532 44.00474 6513 ft 244 kts 149°
2026-05-05 12:58 36.12070 44.01619 6851 ft 256 kts 149°
2026-05-05 12:58 36.10507 44.02840 7116 ft 272 kts 150°
2026-05-05 12:59 36.08883 44.04106 7742 ft 277 kts 150°
2026-05-05 12:59 36.07259 44.05371 8614 ft 275 kts 152°
2026-05-05 12:59 36.05635 44.06632 9410 ft 276 kts 153°
2026-05-05 13:00 36.02305 44.09202 10462 ft 297 kts 153°
2026-05-05 13:00 36.00481 44.10598 10630 ft 319 kts 153°
2026-05-05 13:01 35.94339 44.15312 11293 ft 370 kts 153°
2026-05-05 13:01 35.92138 44.17008 11838 ft 375 kts 153°
2026-05-05 13:01 35.89924 44.18715 12523 ft 375 kts 153°
2026-05-05 13:01 35.87712 44.20419 13242 ft 376 kts 153°
2026-05-05 13:02 35.85484 44.22132 13853 ft 378 kts 153°
2026-05-05 13:02 35.83241 44.23851 14399 ft 381 kts 154°
2026-05-05 13:02 35.80979 44.25584 14939 ft 384 kts 154°
2026-05-05 13:02 35.78702 44.27325 15493 ft 387 kts 154°
2026-05-05 13:03 35.76411 44.29077 16042 ft 389 kts 154°
2026-05-05 13:03 35.74099 44.30843 16574 ft 392 kts 155°
2026-05-05 13:03 35.71773 44.32618 17101 ft 395 kts 155°
2026-05-05 13:03 35.69431 44.34404 17614 ft 397 kts 155°
2026-05-05 13:04 35.67074 44.36201 18108 ft 400 kts 155°
2026-05-05 13:04 35.64701 44.38009 18536 ft 402 kts 156°
2026-05-05 13:04 35.62317 44.39825 18996 ft 404 kts 156°
2026-05-05 13:04 35.59923 44.41647 19451 ft 406 kts 156°
2026-05-05 13:05 35.57513 44.43480 19893 ft 408 kts 156°
2026-05-05 13:05 35.55095 44.45317 20332 ft 410 kts 156°
2026-05-05 13:05 35.52661 44.47164 20743 ft 413 kts 156°
2026-05-05 13:05 35.50211 44.49022 21138 ft 415 kts 156°
2026-05-05 13:06 35.47749 44.50888 21528 ft 417 kts 156°
2026-05-05 13:06 35.45274 44.52764 21901 ft 420 kts 156°
2026-05-05 13:06 35.42781 44.54652 22264 ft 422 kts 156°
2026-05-05 13:06 35.40279 44.56545 22635 ft 424 kts 156°
2026-05-05 13:07 35.37760 44.58449 22994 ft 426 kts 156°
2026-05-05 13:07 35.35227 44.60363 23335 ft 429 kts 156°
2026-05-05 13:07 35.32681 44.62287 23629 ft 431 kts 156°
2026-05-05 13:07 35.30118 44.64220 23902 ft 434 kts 156°
2026-05-05 13:08 35.27542 44.66161 24172 ft 436 kts 156°
2026-05-05 13:08 35.24933 44.68048 24441 ft 436 kts 158°
2026-05-05 13:08 35.23140 44.69262 24624 ft 436 kts 159°
2026-05-05 13:08 35.20458 44.71019 24887 ft 438 kts 160°
2026-05-05 13:09 35.17759 44.72761 25147 ft 440 kts 160°
2026-05-05 13:09 35.15049 44.74511 25395 ft 442 kts 160°
2026-05-05 13:09 35.12322 44.76280 25635 ft 444 kts 160°
2026-05-05 13:09 35.09589 44.78062 25861 ft 447 kts 160°
2026-05-05 13:10 35.06841 44.79860 26104 ft 449 kts 160°
2026-05-05 13:10 35.04088 44.81665 26376 ft 450 kts 160°
2026-05-05 13:10 35.01335 44.83473 26711 ft 449 kts 160°
2026-05-05 13:10 34.98588 44.85277 27108 ft 447 kts 160°
2026-05-05 13:11 34.95853 44.87072 27488 ft 446 kts 160°
2026-05-05 13:11 34.93120 44.88862 27814 ft 446 kts 160°
2026-05-05 13:11 34.90390 44.90647 28145 ft 445 kts 161°
2026-05-05 13:11 34.87666 44.92427 28527 ft 444 kts 161°
2026-05-05 13:12 34.84945 44.94203 28929 ft 443 kts 161°
2026-05-05 13:12 34.82234 44.95972 29288 ft 442 kts 161°
2026-05-05 13:12 34.79527 44.97736 29638 ft 441 kts 161°
2026-05-05 13:12 34.76825 44.99496 29976 ft 440 kts 162°
2026-05-05 13:13 34.74124 45.01254 30273 ft 439 kts 162°
2026-05-05 13:13 34.71436 45.03003 30557 ft 438 kts 162°
2026-05-05 13:13 34.68747 45.04750 30842 ft 438 kts 162°
2026-05-05 13:13 34.66062 45.06493 31098 ft 438 kts 163°
2026-05-05 13:14 34.63413 45.08213 31370 ft 437 kts 163°
2026-05-05 13:14 34.60732 45.09951 31629 ft 437 kts 163°
2026-05-05 13:14 34.58052 45.11688 31872 ft 437 kts 163°
2026-05-05 13:14 34.55373 45.13423 32079 ft 437 kts 163°
2026-05-05 13:15 34.52629 45.15129 32228 ft 433 kts 168°
2026-05-05 13:15 34.49830 45.16339 32371 ft 423 kts 175°
2026-05-05 13:15 34.46996 45.17103 32595 ft 412 kts 182°
2026-05-05 13:15 34.44179 45.17380 32862 ft 403 kts 187°
2026-05-05 13:16 34.38547 45.17718 32933 ft 406 kts 187°
2026-05-05 13:16 34.32916 45.18074 32933 ft 404 kts 187°
2026-05-05 13:17 34.27311 45.18448 32934 ft 403 kts 187°
2026-05-05 13:17 34.21724 45.18827 32940 ft 402 kts 187°
2026-05-05 13:18 34.16137 45.19206 32935 ft 402 kts 187°
2026-05-05 13:18 34.10588 45.19582 32936 ft 402 kts 187°
2026-05-05 13:19 34.04993 45.19961 32931 ft 403 kts 187°
2026-05-05 13:19 33.99347 45.20343 32949 ft 404 kts 187°
2026-05-05 13:20 33.93719 45.20723 32942 ft 406 kts 187°
2026-05-05 13:20 33.88105 45.21102 32948 ft 407 kts 186°
2026-05-05 13:21 33.82440 45.21484 32952 ft 408 kts 186°
2026-05-05 13:21 33.76721 45.21870 32953 ft 409 kts 186°
2026-05-05 13:22 33.71071 45.22251 32960 ft 410 kts 186°
2026-05-05 13:22 33.65374 45.22633 32965 ft 410 kts 186°
2026-05-05 13:23 33.59670 45.23016 32966 ft 411 kts 186°
2026-05-05 13:23 33.53957 45.23399 32975 ft 411 kts 186°
2026-05-05 13:24 33.48243 45.23782 32979 ft 411 kts 187°
2026-05-05 13:24 33.42527 45.24164 32980 ft 412 kts 187°
2026-05-05 13:25 33.36800 45.24546 32976 ft 412 kts 187°
2026-05-05 13:25 33.31052 45.25701 32989 ft 434 kts 172°
2026-05-05 13:26 33.28229 45.27085 32965 ft 445 kts 165°
2026-05-05 13:26 33.25532 45.29028 32966 ft 462 kts 155°
2026-05-05 13:26 33.20455 45.33821 32965 ft 467 kts 152°
2026-05-05 13:27 33.15412 45.38715 32962 ft 467 kts 152°
2026-05-05 13:27 33.10336 45.43550 32960 ft 467 kts 153°
2026-05-05 13:28 33.05231 45.48352 32953 ft 467 kts 153°
2026-05-05 13:28 33.00117 45.53147 32956 ft 468 kts 153°
2026-05-05 13:29 32.94995 45.57946 32961 ft 469 kts 153°
2026-05-05 13:29 32.89861 45.62752 32952 ft 470 kts 153°
2026-05-05 13:30 32.84720 45.67558 32948 ft 470 kts 153°
2026-05-05 13:30 32.79570 45.72363 32949 ft 471 kts 153°
2026-05-05 13:31 32.74407 45.77174 32944 ft 472 kts 153°
2026-05-05 13:31 32.69237 45.81987 32942 ft 473 kts 153°
2026-05-05 13:32 32.64056 45.86805 32940 ft 473 kts 153°
2026-05-05 13:32 32.58866 45.91623 32940 ft 474 kts 153°
2026-05-05 13:33 32.53670 45.96439 32933 ft 475 kts 153°
2026-05-05 13:33 32.48461 46.01261 32932 ft 475 kts 152°
2026-05-05 13:34 32.43244 46.06083 32925 ft 476 kts 152°
2026-05-05 13:34 32.38027 46.10900 32927 ft 476 kts 152°
2026-05-05 13:35 32.32802 46.15715 32925 ft 476 kts 152°
2026-05-05 13:35 32.27573 46.20524 32917 ft 476 kts 152°
2026-05-05 13:36 32.22337 46.25333 32912 ft 476 kts 152°
2026-05-05 13:36 32.17104 46.30133 32906 ft 476 kts 152°
2026-05-05 13:37 32.11865 46.34932 32900 ft 476 kts 152°
2026-05-05 13:37 32.06630 46.39720 32901 ft 477 kts 152°
2026-05-05 13:38 32.01382 46.44512 32896 ft 477 kts 152°
2026-05-05 13:38 31.96135 46.49296 32891 ft 477 kts 152°
2026-05-05 13:39 31.90879 46.54081 32889 ft 478 kts 152°
2026-05-05 13:39 31.85618 46.58864 32878 ft 478 kts 152°
2026-05-05 13:40 31.80351 46.63645 32880 ft 479 kts 152°
2026-05-05 13:40 31.75074 46.68428 32875 ft 479 kts 152°
2026-05-05 13:41 31.69790 46.73211 32870 ft 480 kts 152°
2026-05-05 13:41 31.64501 46.77990 32867 ft 480 kts 152°
2026-05-05 13:42 31.59201 46.82773 32865 ft 481 kts 152°
2026-05-05 13:42 31.53894 46.87556 32860 ft 481 kts 152°
2026-05-05 13:43 31.48580 46.92337 32853 ft 482 kts 152°
2026-05-05 13:43 31.43297 46.97083 32847 ft 482 kts 152°
2026-05-05 13:44 31.37975 47.01858 32858 ft 482 kts 152°
2026-05-05 13:44 31.32642 47.06636 32852 ft 483 kts 152°
2026-05-05 13:45 31.27307 47.11408 32844 ft 483 kts 152°
2026-05-05 13:45 31.21968 47.16177 32743 ft 484 kts 152°
2026-05-05 13:46 31.16632 47.20939 32723 ft 481 kts 152°
2026-05-05 13:46 31.11309 47.25679 32724 ft 482 kts 152°
2026-05-05 13:47 31.05970 47.30425 32724 ft 483 kts 152°
2026-05-05 13:47 31.00615 47.35181 32723 ft 484 kts 151°
2026-05-05 13:48 30.95250 47.39940 32715 ft 485 kts 151°
2026-05-05 13:48 30.89877 47.44700 32714 ft 485 kts 151°
2026-05-05 13:49 30.84503 47.49454 32717 ft 485 kts 150°
2026-05-05 13:49 30.79335 47.54586 32732 ft 490 kts 146°
2026-05-05 13:50 30.74304 47.59933 32727 ft 490 kts 146°
2026-05-05 13:50 30.70122 47.64374 32730 ft 489 kts 146°
2026-05-05 13:51 30.65076 47.69668 32739 ft 488 kts 146°
2026-05-05 13:51 30.60024 47.74927 32741 ft 488 kts 146°
2026-05-05 13:52 30.54971 47.80175 32737 ft 487 kts 146°
2026-05-05 13:52 30.49926 47.85410 32731 ft 487 kts 146°
2026-05-05 13:53 30.44877 47.90642 32724 ft 487 kts 146°
2026-05-05 13:53 30.39830 47.95866 32695 ft 487 kts 146°
2026-05-05 13:54 30.34773 48.01092 32695 ft 487 kts 146°
2026-05-05 13:54 30.29715 48.06313 32690 ft 488 kts 146°
2026-05-05 13:55 30.24646 48.11537 32690 ft 488 kts 146°
2026-05-05 13:55 30.19571 48.16759 32694 ft 489 kts 146°
2026-05-05 13:56 30.14486 48.21985 32700 ft 489 kts 146°
2026-05-05 13:56 30.09390 48.27215 32693 ft 490 kts 146°
2026-05-05 13:57 30.04289 48.32442 32713 ft 491 kts 146°
2026-05-05 13:57 29.99179 48.37672 32718 ft 491 kts 147°
2026-05-05 13:58 29.94063 48.42902 32712 ft 492 kts 147°
2026-05-05 13:58 29.88937 48.48116 32710 ft 490 kts 148°
2026-05-05 13:59 29.83305 48.52216 32729 ft 472 kts 162°
2026-05-05 13:59 29.80356 48.53884 32713 ft 472 kts 163°
2026-05-05 14:00 29.71498 48.58879 32712 ft 473 kts 162°
2026-05-05 14:00 29.65643 48.62252 32714 ft 474 kts 162°
2026-05-05 14:01 29.59758 48.65657 32714 ft 474 kts 162°
2026-05-05 14:01 29.53865 48.69061 32720 ft 474 kts 162°
2026-05-05 14:02 29.47966 48.72462 32711 ft 474 kts 162°
2026-05-05 14:02 29.42071 48.75854 32717 ft 474 kts 162°
2026-05-05 14:03 29.36175 48.79245 32718 ft 474 kts 162°
2026-05-05 14:03 29.30275 48.82636 32720 ft 474 kts 162°
2026-05-05 14:04 29.24375 48.86024 32718 ft 474 kts 162°
2026-05-05 14:04 29.18473 48.89409 32716 ft 475 kts 162°
2026-05-05 14:05 29.12771 48.93358 32713 ft 490 kts 149°
2026-05-05 14:05 29.07590 48.98482 32714 ft 493 kts 147°
2026-05-05 14:06 29.02428 49.03651 32719 ft 493 kts 147°
2026-05-05 14:06 28.97223 49.08749 32719 ft 493 kts 148°
2026-05-05 14:07 28.91997 49.13823 32720 ft 493 kts 148°
2026-05-05 14:07 28.86772 49.18907 32721 ft 494 kts 147°
2026-05-05 14:08 28.81632 49.24143 32725 ft 496 kts 146°
2026-05-05 14:08 28.76517 49.29435 32723 ft 497 kts 146°
2026-05-05 14:09 28.71381 49.34704 32724 ft 497 kts 146°
2026-05-05 14:09 28.66236 49.39955 32724 ft 497 kts 146°
2026-05-05 14:10 28.61163 49.45340 32716 ft 505 kts 139°
2026-05-05 14:10 28.57106 49.51998 32737 ft 518 kts 127°
2026-05-05 14:11 28.53480 49.59089 32726 ft 519 kts 127°
2026-05-05 14:11 28.49797 49.66135 32726 ft 518 kts 128°
2026-05-05 14:12 28.46058 49.73138 32723 ft 518 kts 128°
2026-05-05 14:12 28.42063 49.79888 32718 ft 508 kts 139°
2026-05-05 14:13 28.36914 49.85130 32721 ft 488 kts 155°
2026-05-05 14:13 28.31240 49.89347 32727 ft 488 kts 155°
2026-05-05 14:14 28.25562 49.93570 32733 ft 488 kts 155°
2026-05-05 14:14 28.19898 49.97840 32733 ft 489 kts 155°
2026-05-05 14:15 28.14240 50.02128 32730 ft 490 kts 155°
2026-05-05 14:15 28.08575 50.06419 32731 ft 490 kts 155°
2026-05-05 14:16 28.02905 50.10704 32736 ft 490 kts 155°
2026-05-05 14:16 27.97228 50.14987 32737 ft 490 kts 155°
2026-05-05 14:17 27.91588 50.19236 32734 ft 490 kts 155°
2026-05-05 14:17 27.85909 50.23510 32735 ft 490 kts 155°
2026-05-05 14:18 27.80230 50.27779 32734 ft 490 kts 155°
2026-05-05 14:18 27.74551 50.32042 32739 ft 490 kts 155°
2026-05-05 14:19 27.68869 50.36303 32734 ft 491 kts 155°
2026-05-05 14:19 27.63181 50.40563 32733 ft 491 kts 155°
2026-05-05 14:20 27.57520 50.44883 32733 ft 492 kts 154°
2026-05-05 14:20 27.51880 50.49262 32737 ft 492 kts 154°
2026-05-05 14:21 27.46230 50.53623 32740 ft 492 kts 154°
2026-05-05 14:21 27.40567 50.57962 32741 ft 492 kts 154°
2026-05-05 14:22 27.34894 50.62284 32734 ft 493 kts 154°
2026-05-05 14:22 27.29217 50.66607 32737 ft 493 kts 154°
2026-05-05 14:23 27.23538 50.70931 32739 ft 493 kts 154°
2026-05-05 14:23 27.17852 50.75256 32743 ft 493 kts 154°
2026-05-05 14:24 27.12421 50.80069 32748 ft 506 kts 142°
2026-05-05 14:24 27.07519 50.85768 32742 ft 508 kts 141°
2026-05-05 14:25 27.02584 50.91422 32743 ft 507 kts 142°
2026-05-05 14:25 26.98046 50.97556 32741 ft 520 kts 128°
2026-05-05 14:26 26.94334 51.04470 32739 ft 522 kts 127°
2026-05-05 14:26 26.90580 51.11418 32749 ft 520 kts 128°
2026-05-05 14:27 26.86927 51.18434 32732 ft 527 kts 119°
2026-05-05 14:27 26.84483 51.26223 32749 ft 532 kts 112°
2026-05-05 14:28 26.82254 51.34119 32750 ft 532 kts 112°
2026-05-05 14:28 26.79940 51.42027 32748 ft 531 kts 112°
2026-05-05 14:29 26.77588 51.49864 32749 ft 531 kts 113°
2026-05-05 14:29 26.75233 51.57694 32757 ft 531 kts 113°
2026-05-05 14:30 26.72881 51.65516 32756 ft 531 kts 113°
2026-05-05 14:30 26.70510 51.73328 32753 ft 530 kts 113°
2026-05-05 14:31 26.68143 51.81138 32755 ft 530 kts 113°
2026-05-05 14:31 26.65781 51.88942 32756 ft 529 kts 113°
2026-05-05 14:32 26.63343 51.96696 32759 ft 528 kts 114°
2026-05-05 14:32 26.60811 52.04382 32756 ft 527 kts 115°
2026-05-05 14:33 26.58706 52.10764 32756 ft 526 kts 115°
2026-05-05 14:33 26.56193 52.18430 32760 ft 525 kts 114°
2026-05-05 14:34 26.53688 52.26087 32760 ft 524 kts 114°
2026-05-05 14:34 26.51185 52.33722 32763 ft 523 kts 114°
2026-05-05 14:35 26.48679 52.41343 32759 ft 522 kts 114°
2026-05-05 14:35 26.46175 52.48944 32762 ft 521 kts 114°
2026-05-05 14:36 26.43672 52.56529 32760 ft 521 kts 114°
2026-05-05 14:36 26.41165 52.64112 32760 ft 521 kts 114°
2026-05-05 14:37 26.38677 52.71709 32762 ft 521 kts 114°
2026-05-05 14:37 26.36196 52.79293 32764 ft 521 kts 114°
2026-05-05 14:38 26.33686 52.86866 32766 ft 521 kts 114°
2026-05-05 14:38 26.31149 52.94424 32768 ft 521 kts 114°
2026-05-05 14:39 26.28608 53.01989 32765 ft 521 kts 114°
2026-05-05 14:39 26.26068 53.09553 32766 ft 521 kts 114°
2026-05-05 14:40 26.23522 53.17122 32765 ft 522 kts 114°
2026-05-05 14:40 26.20974 53.24683 32769 ft 522 kts 114°
2026-05-05 14:41 26.18420 53.32245 32769 ft 521 kts 114°
2026-05-05 14:41 26.15590 53.39650 32770 ft 519 kts 118°
2026-05-05 14:42 26.12551 53.46929 32767 ft 519 kts 119°
2026-05-05 14:42 26.09536 53.54217 32768 ft 519 kts 118°
2026-05-05 14:43 26.06558 53.61523 32766 ft 518 kts 118°
2026-05-05 14:43 26.03584 53.68830 32777 ft 518 kts 118°
2026-05-05 14:44 26.00621 53.76089 32591 ft 508 kts 118°
2026-05-05 14:44 25.99195 53.79662 32036 ft 505 kts 117°
2026-05-05 14:44 25.97790 53.83253 31284 ft 508 kts 116°
2026-05-05 14:45 25.96380 53.86875 30466 ft 513 kts 116°
2026-05-05 14:45 25.94956 53.90526 29645 ft 516 kts 116°
2026-05-05 14:45 25.93520 53.94188 28780 ft 517 kts 116°
2026-05-05 14:45 25.92079 53.97847 27999 ft 516 kts 116°
2026-05-05 14:46 25.90598 54.01462 27239 ft 513 kts 117°
2026-05-05 14:46 25.89024 54.05000 26482 ft 510 kts 118°
2026-05-05 14:46 25.87426 54.08490 25905 ft 504 kts 118°
2026-05-05 14:46 25.85852 54.11938 25412 ft 496 kts 118°
2026-05-05 14:47 25.84326 54.15335 24908 ft 489 kts 117°
2026-05-05 14:47 25.82826 54.18704 24367 ft 483 kts 117°
2026-05-05 14:47 25.81418 54.22071 23824 ft 478 kts 112°
2026-05-05 14:47 25.80291 54.25515 23305 ft 471 kts 109°
2026-05-05 14:48 25.79271 54.28918 22502 ft 460 kts 108°
2026-05-05 14:48 25.78289 54.32268 21444 ft 455 kts 108°
2026-05-05 14:48 25.77304 54.35595 20440 ft 451 kts 108°
2026-05-05 14:48 25.76316 54.38868 19547 ft 444 kts 109°
2026-05-05 14:49 25.75329 54.42085 18703 ft 437 kts 109°
2026-05-05 14:49 25.74350 54.45252 17834 ft 431 kts 109°
2026-05-05 14:49 25.73379 54.48377 16888 ft 425 kts 109°
2026-05-05 14:49 25.72424 54.51453 16001 ft 419 kts 109°
2026-05-05 14:50 25.71483 54.54480 15145 ft 412 kts 108°
2026-05-05 14:50 25.70554 54.57470 14298 ft 407 kts 108°
2026-05-05 14:50 25.69638 54.60413 13493 ft 401 kts 108°
2026-05-05 14:50 25.68730 54.63275 13138 ft 382 kts 109°
2026-05-05 14:51 25.67860 54.65979 12923 ft 362 kts 109°
2026-05-05 14:51 25.67034 54.68548 12772 ft 347 kts 109°
2026-05-05 14:51 25.66236 54.71030 12622 ft 337 kts 109°
2026-05-05 14:51 25.65471 54.73411 12485 ft 328 kts 109°
2026-05-05 14:52 25.64717 54.75759 12352 ft 319 kts 109°
2026-05-05 14:52 25.63985 54.78042 12202 ft 311 kts 109°
2026-05-05 14:52 25.63270 54.80267 12061 ft 302 kts 109°
2026-05-05 14:52 25.62575 54.82432 11954 ft 294 kts 109°
2026-05-05 14:53 25.61898 54.84536 11839 ft 286 kts 109°
2026-05-05 14:53 25.61235 54.86583 11680 ft 280 kts 110°
2026-05-05 14:53 25.60494 54.88574 11436 ft 279 kts 113°
2026-05-05 14:53 25.59712 54.90535 11204 ft 278 kts 113°
2026-05-05 14:54 25.58926 54.92491 10962 ft 277 kts 113°
2026-05-05 14:54 25.58148 54.94440 10737 ft 277 kts 113°
2026-05-05 14:54 25.57375 54.96389 10507 ft 276 kts 113°
2026-05-05 14:54 25.56608 54.98331 10280 ft 275 kts 113°
2026-05-05 14:55 25.55843 55.00273 10080 ft 274 kts 113°
2026-05-05 14:55 25.55078 55.02212 10050 ft 276 kts 113°
2026-05-05 14:55 25.54278 55.04136 10015 ft 274 kts 117°
2026-05-05 14:55 25.53351 55.05969 10014 ft 272 kts 120°
2026-05-05 14:56 25.52388 55.07783 10018 ft 274 kts 120°
2026-05-05 14:56 25.51420 55.09604 10020 ft 275 kts 120°
2026-05-05 14:56 25.50454 55.11438 10013 ft 276 kts 120°
2026-05-05 14:56 25.49484 55.13291 9786 ft 281 kts 120°
2026-05-05 14:57 25.48505 55.15171 9559 ft 281 kts 120°
2026-05-05 14:57 25.47537 55.17033 9319 ft 277 kts 120°
2026-05-05 14:57 25.46579 55.18876 9067 ft 275 kts 120°
2026-05-05 14:57 25.45551 55.20640 8816 ft 272 kts 129°
2026-05-05 14:58 25.44308 55.22207 8585 ft 269 kts 133°
2026-05-05 14:58 25.43031 55.23710 8338 ft 267 kts 133°
2026-05-05 14:58 25.41765 55.25206 8108 ft 266 kts 133°
2026-05-05 14:58 25.40508 55.26716 8044 ft 268 kts 132°
2026-05-05 14:59 25.39255 55.28240 8004 ft 265 kts 132°
2026-05-05 14:59 25.38052 55.29713 7987 ft 251 kts 132°
2026-05-05 14:59 25.36901 55.31124 7990 ft 245 kts 132°
2026-05-05 14:59 25.35755 55.32503 7987 ft 243 kts 137°
2026-05-05 15:00 25.34347 55.33522 7986 ft 244 kts 153°
2026-05-05 15:00 25.33340 55.34094 7869 ft 248 kts 153°
2026-05-05 15:00 25.31289 55.35258 7686 ft 249 kts 153°
2026-05-05 15:00 25.29753 55.36140 7472 ft 248 kts 152°
2026-05-05 15:01 25.28230 55.37019 7258 ft 246 kts 152°
2026-05-05 15:01 25.26723 55.37894 7041 ft 243 kts 152°
2026-05-05 15:01 25.25237 55.38761 6824 ft 240 kts 152°
2026-05-05 15:01 25.23766 55.39620 6610 ft 239 kts 152°
2026-05-05 15:02 25.22287 55.40485 6265 ft 243 kts 152°
2026-05-05 15:02 25.20781 55.41365 5925 ft 246 kts 151°
2026-05-05 15:02 25.19252 55.42259 5575 ft 250 kts 151°
2026-05-05 15:02 25.17714 55.43159 5217 ft 250 kts 150°
2026-05-05 15:03 25.16181 55.44055 4858 ft 247 kts 150°
2026-05-05 15:03 25.14677 55.44934 4561 ft 242 kts 150°
2026-05-05 15:03 25.13203 55.45795 4269 ft 237 kts 150°
2026-05-05 15:03 25.11761 55.46648 3979 ft 233 kts 146°
2026-05-05 15:04 25.10667 55.47889 3679 ft 223 kts 119°
2026-05-05 15:04 25.09870 55.49345 3414 ft 222 kts 120°
2026-05-05 15:04 25.09057 55.50803 3151 ft 225 kts 119°
2026-05-05 15:04 25.08234 55.52279 2894 ft 227 kts 118°
2026-05-05 15:05 25.08149 55.55530 2290 ft 219 kts 56°
2026-05-05 15:05 25.09269 55.56578 2098 ft 208 kts 22°
2026-05-05 15:05 25.10644 55.56704 2033 ft 198 kts 346°
2026-05-05 15:06 25.11877 55.56055 2034 ft 197 kts 333°
2026-05-05 15:06 25.13062 55.55287 2026 ft 198 kts 333°
2026-05-05 15:06 25.14242 55.54510 2047 ft 197 kts 333°
2026-05-05 15:06 25.15383 55.53726 2050 ft 194 kts 323°
2026-05-05 15:07 25.16218 55.52630 2030 ft 174 kts 309°
2026-05-05 15:07 25.16892 55.51579 2054 ft 166 kts 307°
2026-05-05 15:07 25.17512 55.50512 2000 ft 168 kts 305°
2026-05-05 15:07 25.18141 55.49386 1965 ft 173 kts 306°
2026-05-05 15:08 25.18765 55.48257 1779 ft 171 kts 306°
2026-05-05 15:08 25.19377 55.47145 1580 ft 169 kts 306°
2026-05-05 15:08 25.20000 55.46030 1305 ft 173 kts 305°
2026-05-05 15:08 25.20615 55.44904 1137 ft 168 kts 303°
2026-05-05 15:09 25.21212 55.43797 924 ft 167 kts 305°
2026-05-05 15:09 25.21818 55.42727 716 ft 160 kts 305°
2026-05-05 15:09 25.22385 55.41695 519 ft 156 kts 303°
2026-05-05 15:09 25.22941 55.40668 344 ft 156 kts 303°
2026-05-05 15:10 25.23502 55.39648 119 ft 153 kts 304°
2026-05-05 15:10 25.24036 55.38687 29 ft 135 kts 302°
2026-05-05 15:10 25.24418 55.38000 29 ft 75 kts 302°
2026-05-05 15:10 25.24571 55.37701 27 ft 20 kts 294°
2026-05-05 15:11 25.24611 55.37550 27 ft 21 kts 277°
2026-05-05 15:11 25.24618 55.37394 24 ft 20 kts 275°
2026-05-05 15:11 25.24637 55.37245 23 ft 19 kts 292°
2026-05-05 15:11 25.24705 55.37120 23 ft 19 kts 302°
2026-05-05 15:12 25.24773 55.37000 24 ft 18 kts 302°
2026-05-05 15:12 25.24836 55.36883 22 ft 17 kts 297°
2026-05-05 15:12 25.24870 55.36757 22 ft 17 kts 281°
2026-05-05 15:12 25.24909 55.36639 21 ft 16 kts 299°
2026-05-05 15:13 25.24966 55.36534 21 ft 16 kts 302°
2026-05-05 15:13 25.25022 55.36435 21 ft 15 kts 302°
2026-05-05 15:13 25.25078 55.36337 22 ft 16 kts 301°
2026-05-05 15:13 25.25136 55.36234 22 ft 15 kts 302°
2026-05-05 15:14 25.25173 55.36168 23 ft 15 kts 302°
2026-05-05 15:14 25.25227 55.36072 21 ft 14 kts 302°
2026-05-05 15:14 25.25278 55.35980 21 ft 14 kts 302°
2026-05-05 15:14 25.25328 55.35892 20 ft 13 kts 301°
2026-05-05 15:15 25.25375 55.35808 22 ft 13 kts 301°
2026-05-05 15:15 25.25422 55.35725 20 ft 12 kts 303°
2026-05-05 15:15 25.25467 55.35646 20 ft 12 kts 302°
2026-05-05 15:15 25.25515 55.35561 23 ft 16 kts 302°
2026-05-05 15:16 25.25577 55.35449 21 ft 17 kts 301°
2026-05-05 15:16 25.25640 55.35338 21 ft 17 kts 302°
2026-05-05 15:16 25.25703 55.35225 20 ft 18 kts 302°
2026-05-05 15:16 25.25766 55.35111 21 ft 17 kts 300°
2026-05-05 15:17 25.25829 55.34994 20 ft 19 kts 302°
2026-05-05 15:17 25.25899 55.34870 20 ft 19 kts 302°
2026-05-05 15:17 25.25966 55.34750 20 ft 18 kts 302°
2026-05-05 15:17 25.26031 55.34634 20 ft 17 kts 301°
2026-05-05 15:18 25.26080 55.34547 22 ft 7 kts 303°
2026-05-05 15:18 25.26082 55.34544 22 ft 0 kts 304°
2026-05-05 15:18 25.26092 55.34526 20 ft 7 kts 303°
2026-05-05 15:18 25.26108 55.34515 20 ft 2 kts 351°
2026-05-05 15:19 25.26142 55.34526 20 ft 6 kts 41°
2026-05-05 15:19 25.26180 55.34549 23 ft 6 kts 32°
2026-05-05 15:19 25.26195 55.34559 20 ft 0 kts 30°